QPF
0.00 0.00 0.00 0.00 0.00 0.00 0.00 0.00 0.00 0.00 0.00 0.00 0.00 0.00 0.00 0.00 0.00 0.00 0.00 0.00 0.00 0.00 0.01 0.02 0.02 0.04 0.02 0.00 0.00 0.03 0.03 0.06 0.04 0.01 0.00 0.00 0.00 0.00 0.01 0.00 0.00 0.00 0.00 0.00
0.00 0.00 0.00 0.00 0.00 0.00 0.00 0.00 0.00 0.00 0.00 0.00 0.00 0.00 0.00 0.00 0.00 0.00 0.00 0.00 0.00 0.00 0.00 0.01 0.00 0.01 0.02 0.05 0.05 0.02 0.01 0.00 0.00 0.00 0.00 0.00 0.00 0.00 0.00 0.00 0.00 0.00 0.00 0.00
0.00 0.00 0.00 0.00 0.00 0.00 0.00 0.00 0.00 0.00 0.00 0.00 0.00 0.00 0.00 0.00 0.00 0.00 0.00 0.00 0.00 0.00 0.00 0.00 0.00 0.00 0.00 0.00 0.00 0.00 0.00 0.00 0.00 0.00 0.00 0.00 0.00 0.00 0.00 0.00 0.00 0.00 0.00 0.00
0.00 0.00 0.00 0.00 0.00 0.00 0.00 0.00 0.00 0.00 0.00 0.00 0.00 0.00 0.00 0.00 0.00 0.00 0.00 0.00 0.00 0.00 0.00 0.00 0.00 0.00 0.00 0.00 0.00 0.00 0.00 0.00 0.00 0.00 0.00 0.00 0.00 0.00 0.00 0.00 0.00 0.00 0.00 0.00
0.00 0.00 0.00 0.00 0.00 0.00 0.00 0.00 0.00 0.00 0.00 0.00 0.00 0.00 0.00 0.00 0.00 0.00 0.00 0.00 0.00 0.00 0.00 0.00 0.00 0.00 0.00 0.00 0.00 0.00 0.00 0.00 0.00 0.00 0.00 0.00 0.00 0.00 0.00 0.00 0.00 0.00 0.00 0.00
0.00 0.00 0.00 0.00 0.00 0.00 0.00 0.00 0.00 0.00 0.00 0.00 0.00 0.00 0.00 0.00 0.00 0.00 0.00 0.00 0.00 0.00 0.00 0.00 0.00 0.00 0.00 0.00 0.00 0.00 0.00 0.00 0.00 0.00 0.00 0.00 0.00 0.00 0.00 0.00 0.00 0.00 0.00 0.00
0.00 0.00 0.00 0.00 0.00 0.00 0.00 0.00 0.00 0.00 0.00 0.00 0.00 0.00 0.00 0.00 0.00 0.00 0.00 0.00 0.00 0.00 0.00 0.00 0.00 0.00 0.00 0.00 0.00 0.00 0.00 0.00 0.00 0.00 0.00 0.00 0.00 0.00 0.00 0.00 0.00 0.00 0.00 0.00
0.00 0.00 0.00 0.00 0.00 0.00 0.00 0.00 0.00 0.00 0.00 0.00 0.00 0.00 0.00 0.00 0.00 0.00 0.00 0.00 0.00 0.00 0.00 0.00 0.00 0.00 0.00 0.00 0.00 0.00 0.00 0.00 0.00 0.00 0.00 0.00 0.00 0.00 0.00 0.00 0.00 0.00 0.00 0.00
0.00 0.00 0.00 0.00 0.00 0.00 0.00 0.00 0.00 0.00 0.00 0.00 0.00 0.00 0.00 0.00 0.00 0.00 0.00 0.00 0.00 0.00 0.00 0.00 0.00 0.00 0.00 0.00 0.00 0.00 0.00 0.00 0.00 0.00 0.00 0.00 0.00 0.00 0.00 0.00 0.00 0.00 0.00 0.00
0.00 0.00 0.00 0.00 0.00 0.00 0.00 0.00 0.00 0.00 0.00 0.00 0.00 0.00 0.00 0.00 0.00 0.00 0.00 0.00 0.00 0.00 0.00 0.00 0.00 0.00 0.00 0.00 0.00 0.00 0.00 0.00 0.00 0.00 0.00 0.00 0.00 0.00 0.00 0.00 0.00 0.00 0.00 0.00
0.00 0.00 0.00 0.00 0.00 0.00 0.00 0.00 0.00 0.00 0.00 0.00 0.00 0.00 0.00 0.00 0.00 0.00 0.00 0.00 0.00 0.00 0.00 0.00 0.00 0.00 0.00 0.00 0.00 0.00 0.00 0.00 0.00 0.00 0.00 0.00 0.00 0.00 0.00 0.00 0.00 0.00 0.00 0.00
0.00 0.00 0.00 0.00 0.00 0.00 0.00 0.00 0.00 0.00 0.00 0.00 0.00 0.00 0.00 0.00 0.00 0.00 0.00 0.00 0.00 0.00 0.00 0.00 0.00 0.00 0.00 0.00 0.00 0.00 0.00 0.00 0.00 0.00 0.00 0.00 0.00 0.00 0.00 0.00 0.00 0.00 0.00 0.00
0.00 0.00 0.00 0.00 0.00 0.00 0.00 0.00 0.00 0.00 0.00 0.00 0.00 0.00 0.00 0.00 0.00 0.00 0.00 0.00 0.00 0.00 0.00 0.00 0.00 0.00 0.00 0.00 0.00 0.00 0.00 0.00 0.00 0.00 0.00 0.00 0.00 0.00 0.00 0.00 0.00 0.00 0.00 0.00
0.00 0.00 0.00 0.00 0.00 0.00 0.00 0.00 0.00 0.00 0.00 0.00 0.00 0.00 0.00 0.00 0.00 0.00 0.00 0.00 0.00 0.00 0.00 0.00 0.00 0.00 0.00 0.00 0.00 0.00 0.00 0.00 0.00 0.00 0.00 0.00 0.00 0.00 0.00 0.00 0.00 0.00 0.00 0.00
0.00 0.00 0.00 0.00 0.00 0.00 0.00 0.00 0.00 0.00 0.00 0.00 0.00 0.00 0.00 0.00 0.00 0.00 0.00 0.00 0.00 0.00 0.00 0.00 0.00 0.00 0.00 0.00 0.00 0.00 0.00 0.00 0.00 0.00 0.00 0.00 0.00 0.00 0.00 0.00 0.00 0.00 0.00 0.00
0.00 0.00 0.00 0.00 0.00 0.00 0.00 0.00 0.00 0.00 0.00 0.00 0.00 0.00 0.00 0.00 0.00 0.00 0.00 0.00 0.00 0.00 0.00 0.00 0.00 0.00 0.00 0.00 0.00 0.00 0.00 0.00 0.00 0.00 0.00 0.00 0.00 0.00 0.00 0.00 0.00 0.00 0.00 0.00
0.00 0.00 0.00 0.00 0.00 0.00 0.00 0.00 0.00 0.00 0.00 0.00 0.00 0.00 0.00 0.00 0.00 0.00 0.00 0.00 0.00 0.00 0.00 0.00 0.00 0.00 0.00 0.00 0.00 0.00 0.00 0.00 0.00 0.00 0.00 0.00 0.00 0.00 0.00 0.00 0.00 0.00 0.00 0.00
0.00 0.00 0.00 0.00 0.00 0.00 0.00 0.00 0.00 0.00 0.00 0.00 0.00 0.00 0.00 0.00 0.00 0.00 0.00 0.00 0.00 0.00 0.00 0.00 0.00 0.00 0.00 0.00 0.00 0.00 0.00 0.00 0.00 0.00 0.00 0.00 0.00 0.00 0.00 0.00 0.00 0.00 0.00 0.00
0.00 0.00 0.00 0.00 0.00 0.00 0.00 0.00 0.00 0.00 0.00 0.00 0.00 0.00 0.00 0.00 0.00 0.00 0.00 0.00 0.00 0.00 0.00 0.00 0.00 0.00 0.00 0.00 0.00 0.00 0.00 0.00 0.00 0.00 0.00 0.00 0.00 0.00 0.00 0.00 0.00 0.00 0.00 0.00
0.00 0.00 0.00 0.00 0.00 0.00 0.00 0.00 0.00 0.00 0.00 0.00 0.00 0.00 0.00 0.00 0.00 0.00 0.00 0.00 0.00 0.00 0.00 0.00 0.00 0.00 0.00 0.00 0.00 0.00 0.00 0.00 0.00 0.00 0.00 0.00 0.00 0.00 0.00 0.00 0.00 0.00 0.00 0.00
0.00 0.00 0.00 0.00 0.00 0.00 0.00 0.00 0.00 0.00 0.00 0.00 0.00 0.00 0.00 0.00 0.00 0.00 0.00 0.00 0.00 0.00 0.00 0.00 0.00 0.00 0.00 0.00 0.00 0.00 0.00 0.00 0.00 0.00 0.00 0.00 0.00 0.00 0.00 0.00 0.00 0.00 0.00 0.00
0.00 0.00 0.00 0.00 0.00 0.00 0.00 0.00 0.00 0.00 0.00 0.00 0.00 0.00 0.00 0.00 0.00 0.00 0.00 0.00 0.00 0.00 0.00 0.00 0.00 0.00 0.00 0.00 0.00 0.00 0.00 0.00 0.00 0.00 0.00 0.00 0.00 0.00 0.00 0.00 0.00 0.00 0.00 0.00
0.00 0.00 0.00 0.00 0.00 0.00 0.00 0.00 0.00 0.00 0.00 0.00 0.00 0.00 0.00 0.00 0.00 0.00 0.00 0.00 0.00 0.00 0.00 0.00 0.00 0.00 0.00 0.00 0.00 0.00 0.00 0.00 0.00 0.00 0.00 0.00 0.00 0.00 0.00 0.00 0.00 0.00 0.00 0.00
0.00 0.00 0.00 0.00 0.00 0.00 0.00 0.00 0.00 0.00 0.00 0.00 0.00 0.00 0.00 0.00 0.00 0.00 0.00 0.00 0.00 0.00 0.00 0.00 0.00 0.00 0.00 0.00 0.00 0.00 0.00 0.00 0.00 0.00 0.00 0.00 0.00 0.00 0.00 0.00 0.00 0.00 0.00 0.00
0.00 0.00 0.00 0.00 0.00 0.00 0.00 0.00 0.00 0.00 0.00 0.00 0.00 0.00 0.00 0.00 0.00 0.00 0.00 0.00 0.00 0.00 0.00 0.00 0.00 0.00 0.00 0.00 0.00 0.00 0.00 0.00 0.00 0.00 0.00 0.00 0.00 0.00 0.00 0.00 0.00 0.00 0.00 0.00
0.00 0.00 0.00 0.00 0.00 0.00 0.00 0.00 0.00 0.00 0.00 0.00 0.00 0.00 0.00 0.00 0.00 0.00 0.00 0.00 0.00 0.00 0.00 0.00 0.00 0.00 0.00 0.00 0.00 0.00 0.00 0.00 0.00 0.00 0.00 0.00 0.00 0.00 0.00 0.00 0.00 0.00 0.00 0.00
MSLP
1011.52 1011.59 1011.79 1012.07 1012.24 1012.49 1012.92 1013.61 1014.51 1015.72 1016.53 1016.97 1018.10 1018.56 1018.98 1019.11 1019.10 1019.35 1019.56 1019.86 1020.25 1020.55 1020.96 1021.03 1021.32 1021.34 1021.24 1021.69 1021.94 1022.37 1022.70 1023.02 1023.00 1023.48 1023.84 1024.18 1024.50 1025.02 1025.40 1024.97 1025.14 1025.12 1025.28 1025.34
1011.48 1011.91 1012.26 1012.33 1012.48 1012.81 1013.39 1014.25 1015.38 1016.45 1016.83 1017.09 1018.26 1018.80 1019.34 1019.50 1019.80 1019.97 1019.95 1020.16 1020.34 1020.74 1021.12 1021.36 1021.29 1021.35 1021.38 1021.68 1022.00 1022.51 1022.71 1022.94 1023.07 1023.25 1023.56 1023.88 1024.34 1024.79 1025.05 1025.34 1025.68 1025.78 1025.82 1025.79
1011.90 1012.50 1012.40 1012.68 1013.30 1013.59 1013.93 1014.43 1015.49 1016.15 1017.03 1017.39 1017.73 1018.68 1019.26 1019.75 1020.05 1020.27 1020.41 1020.57 1020.78 1020.88 1021.19 1021.67 1021.90 1022.11 1022.34 1022.43 1022.59 1022.68 1023.06 1023.34 1023.52 1023.52 1023.88 1024.28 1024.66 1025.03 1025.29 1025.72 1025.84 1025.83 1025.59 1025.37
1012.52 1012.75 1012.87 1013.18 1013.57 1013.65 1014.13 1014.68 1015.31 1016.06 1016.62 1017.16 1017.58 1018.11 1018.93 1019.49 1019.94 1020.25 1020.48 1020.80 1020.99 1021.19 1021.49 1021.89 1022.34 1022.53 1022.59 1022.87 1023.10 1023.31 1023.52 1023.93 1024.11 1024.24 1024.31 1024.41 1024.57 1024.91 1025.64 1025.89 1025.87 1025.77 1025.95 1025.76
1013.17 1013.01 1013.18 1013.37 1013.88 1013.59 1014.73 1014.99 1015.50 1016.15 1016.56 1016.98 1017.44 1017.71 1018.51 1019.20 1019.53 1019.76 1020.15 1020.66 1021.08 1021.36 1021.50 1021.86 1021.98 1022.13 1022.60 1022.75 1023.42 1023.78 1023.81 1024.28 1024.56 1024.67 1024.74 1024.79 1025.11 1025.61 1025.93 1026.06 1026.17 1026.12 1026.02 1025.99
1013.05 1013.14 1013.39 1013.60 1014.02 1013.72 1014.52 1015.30 1015.99 1016.62 1016.84 1017.24 1017.29 1017.58 1017.61 1018.14 1017.79 1018.89 1019.73 1020.42 1020.93 1021.27 1021.58 1022.03 1022.42 1022.59 1022.83 1023.01 1023.71 1023.69 1023.90 1024.62 1024.77 1025.01 1025.33 1025.50 1025.75 1026.10 1026.23 1026.46 1026.33 1026.03 1025.69 1025.36
1013.62 1013.82 1013.65 1013.54 1014.00 1014.62 1014.68 1015.55 1016.58 1017.13 1017.43 1017.51 1017.70 1017.71 1016.40 1016.76 1017.32 1017.89 1018.92 1019.80 1020.60 1021.19 1021.77 1022.27 1022.48 1022.95 1023.23 1023.36 1023.87 1024.09 1024.44 1025.04 1025.47 1025.75 1026.09 1026.27 1026.48 1026.64 1026.68 1026.66 1026.42 1026.07 1025.57 1025.21
1014.12 1014.21 1013.84 1013.76 1013.98 1014.40 1015.22 1015.70 1016.41 1017.22 1018.03 1017.83 1018.00 1017.30 1016.33 1016.77 1017.11 1017.54 1018.41 1019.49 1020.54 1021.36 1022.05 1022.52 1023.03 1023.32 1023.62 1023.97 1024.16 1024.47 1024.80 1025.31 1025.76 1026.01 1026.24 1026.53 1026.63 1026.76 1026.80 1026.80 1026.60 1026.17 1025.74 1025.31
1014.37 1014.52 1014.25 1014.18 1014.20 1014.72 1015.57 1016.25 1016.97 1017.76 1019.07 1018.70 1017.90 1017.33 1016.43 1016.81 1017.16 1017.87 1018.70 1019.69 1020.55 1021.41 1022.19 1022.77 1023.51 1023.95 1024.30 1024.43 1024.71 1024.79 1025.02 1025.54 1025.95 1026.30 1026.57 1026.84 1026.96 1026.99 1026.94 1026.79 1026.54 1026.15 1025.83 1025.39
1014.48 1014.83 1014.85 1014.73 1014.69 1015.19 1015.30 1016.50 1017.33 1018.02 1018.95 1018.99 1018.16 1017.67 1016.73 1016.95 1017.18 1017.98 1018.82 1019.45 1020.52 1021.58 1022.47 1023.29 1023.96 1024.40 1024.74 1024.94 1025.32 1025.60 1025.54 1025.68 1026.12 1026.41 1026.65 1026.74 1026.86 1026.96 1026.81 1026.69 1026.51 1026.19 1025.73 1025.36
1014.69 1015.01 1015.63 1015.31 1015.26 1015.36 1016.15 1016.76 1017.87 1018.58 1019.32 1019.22 1018.90 1017.28 1016.81 1016.75 1017.07 1017.50 1018.29 1019.39 1020.49 1021.61 1022.60 1023.48 1024.14 1024.63 1024.98 1025.23 1025.44 1025.57 1025.73 1025.89 1026.07 1026.43 1026.75 1026.80 1026.78 1026.78 1026.80 1026.71 1026.48 1026.18 1025.78 1025.32
1015.33 1015.75 1016.12 1016.07 1015.78 1015.81 1015.93 1016.63 1017.42 1018.57 1019.80 1020.04 1019.59 1017.63 1017.10 1017.25 1017.42 1017.91 1018.76 1019.78 1020.77 1021.74 1022.66 1023.47 1024.12 1024.63 1025.05 1025.23 1025.33 1025.27 1025.64 1025.91 1026.16 1026.53 1026.70 1026.91 1026.83 1026.89 1026.89 1026.76 1026.54 1026.34 1025.96 1025.58
1015.53 1016.39 1016.89 1016.86 1016.65 1016.29 1016.47 1017.06 1017.73 1018.41 1019.10 1019.42 1019.22 1017.61 1017.35 1017.65 1017.73 1018.01 1018.71 1019.97 1020.91 1021.78 1022.67 1023.42 1024.06 1024.47 1024.78 1025.06 1025.07 1025.40 1025.68 1025.97 1026.36 1026.56 1026.67 1026.72 1026.89 1026.99 1026.88 1026.69 1026.46 1026.23 1025.89 1025.60
1015.92 1016.95 1017.06 1017.14 1016.92 1016.89 1017.05 1017.21 1017.68 1017.86 1018.69 1018.79 1018.11 1017.30 1017.20 1017.53 1018.02 1018.57 1019.21 1020.00 1020.78 1021.74 1022.53 1023.11 1023.72 1024.09 1024.43 1024.64 1024.99 1025.24 1025.48 1026.14 1026.34 1026.45 1026.48 1026.67 1026.82 1026.77 1026.66 1026.47 1026.22 1025.93 1025.63 1025.25
1016.91 1017.71 1018.19 1018.24 1018.06 1017.67 1017.31 1017.27 1017.47 1017.62 1017.62 1017.76 1017.07 1017.05 1016.70 1017.05 1017.62 1018.60 1019.55 1020.29 1020.94 1021.62 1022.28 1022.75 1023.17 1023.62 1023.97 1024.38 1024.66 1024.96 1025.41 1025.94 1026.22 1026.21 1026.35 1026.41 1026.48 1026.47 1026.34 1026.17 1025.97 1025.66 1025.32 1024.99
1018.10 1018.95 1019.24 1019.33 1018.95 1018.43 1017.85 1017.37 1017.40 1017.41 1017.34 1017.14 1016.92 1016.50 1016.26 1017.05 1017.87 1018.84 1019.37 1020.09 1020.64 1021.20 1021.71 1022.21 1022.70 1023.05 1023.46 1023.90 1024.32 1024.70 1025.18 1025.67 1025.91 1026.03 1026.07 1026.15 1026.23 1026.15 1025.95 1025.88 1025.70 1025.38 1025.06 1024.87
1019.03 1019.58 1020.20 1020.15 1019.63 1018.93 1018.25 1016.47 1016.42 1016.50 1016.37 1016.17 1016.39 1015.67 1016.51 1017.22 1017.74 1018.01 1018.83 1019.61 1020.12 1020.61 1021.10 1021.56 1021.97 1022.49 1023.00 1023.53 1024.02 1024.47 1025.01 1025.37 1025.63 1025.80 1025.80 1025.79 1025.80 1025.67 1025.61 1025.57 1025.28 1024.98 1024.74 1024.59
1019.49 1020.10 1020.61 1020.90 1020.46 1019.02 1016.19 1015.85 1015.79 1015.78 1015.54 1015.58 1015.65 1015.88 1016.43 1016.98 1017.53 1017.94 1018.45 1018.91 1019.50 1020.11 1020.54 1021.03 1021.59 1022.17 1022.76 1023.44 1024.01 1024.50 1024.86 1025.14 1025.36 1025.46 1025.44 1025.43 1025.36 1025.28 1025.20 1025.13 1024.88 1024.61 1024.41 1024.21
1019.58 1020.27 1021.26 1021.47 1020.48 1018.38 1016.10 1015.82 1015.82 1015.61 1014.76 1014.67 1015.30 1015.98 1016.84 1017.58 1017.83 1017.75 1018.05 1018.42 1018.79 1019.50 1020.15 1020.73 1021.32 1022.10 1022.86 1023.39 1023.93 1024.36 1024.71 1024.99 1025.20 1025.17 1025.12 1025.09 1025.03 1024.87 1024.84 1024.63 1024.46 1024.31 1024.08 1023.87
1020.23 1020.30 1020.69 1021.71 1020.60 1018.59 1016.21 1015.42 1015.27 1015.29 1014.96 1014.40 1015.07 1016.10 1017.01 1017.55 1017.81 1016.78 1017.01 1017.84 1018.76 1019.56 1020.23 1020.90 1021.78 1022.39 1022.92 1023.53 1023.93 1024.30 1024.69 1024.92 1024.92 1025.07 1025.05 1024.95 1024.79 1024.61 1024.39 1024.22 1024.10 1024.02 1023.93 1023.90
1020.81 1021.21 1021.29 1021.35 1020.01 1017.98 1016.02 1015.69 1015.55 1015.60 1015.22 1014.78 1015.15 1015.80 1016.75 1017.00 1016.50 1016.61 1016.84 1017.80 1018.58 1019.58 1020.36 1021.25 1022.08 1022.74 1023.27 1023.61 1024.01 1024.34 1024.59 1024.71 1024.94 1025.01 1024.92 1024.70 1024.39 1024.19 1023.95 1023.78 1023.78 1023.71 1023.68 1023.86
1019.75 1020.37 1020.91 1021.05 1019.58 1017.56 1016.01 1016.05 1015.88 1015.01 1014.82 1014.95 1015.30 1015.51 1016.01 1015.93 1016.55 1017.02 1017.55 1018.21 1018.96 1019.76 1020.62 1021.09 1021.91 1022.67 1023.42 1023.75 1023.93 1024.23 1024.46 1024.68 1024.88 1024.91 1024.65 1024.25 1023.99 1023.80 1023.58 1023.50 1023.38 1023.41 1023.57 1023.76
1019.26 1018.69 1018.85 1019.00 1017.26 1016.06 1015.79 1015.28 1014.92 1015.08 1015.11 1015.10 1015.45 1015.56 1015.98 1016.48 1016.90 1017.45 1018.11 1018.77 1019.45 1020.18 1021.05 1021.39 1021.91 1022.67 1023.37 1023.72 1023.97 1024.10 1024.26 1024.61 1024.61 1024.49 1024.16 1023.97 1023.84 1023.55 1023.31 1023.20 1022.96 1023.13 1023.45 1023.66
1018.32 1018.13 1018.13 1017.95 1016.12 1015.65 1015.35 1014.93 1014.80 1014.80 1014.94 1014.96 1015.15 1015.40 1015.91 1016.20 1016.99 1017.85 1018.50 1019.32 1020.08 1020.79 1021.12 1021.64 1022.04 1022.74 1023.22 1023.58 1023.83 1024.06 1024.32 1024.37 1024.35 1024.11 1024.06 1023.94 1023.68 1023.43 1023.07 1022.95 1022.84 1022.88 1023.09 1023.33
1017.75 1017.71 1017.26 1016.83 1015.59 1015.05 1014.64 1014.52 1014.40 1014.45 1014.65 1014.88 1015.11 1015.35 1015.62 1016.19 1016.80 1017.56 1018.49 1019.29 1019.90 1020.46 1021.62 1022.12 1022.36 1022.72 1023.12 1023.49 1023.73 1023.92 1023.97 1023.99 1024.02 1024.02 1023.80 1023.63 1023.52 1023.31 1022.97 1022.69 1022.58 1022.68 1022.76 1022.89
1016.77 1016.10 1016.06 1015.22 1014.40 1014.70 1014.39 1014.22 1014.41 1014.61 1014.73 1014.91 1015.29 1015.65 1016.04 1016.41 1017.18 1018.18 1019.44 1020.21 1020.56 1021.15 1021.56 1022.20 1022.50 1022.71 1023.06 1023.37 1023.62 1023.73 1023.56 1023.77 1023.83 1023.68 1023.24 1023.05 1022.96 1022.81 1022.61 1022.39 1022.22 1022.47 1022.52 1022.67
Thickness
5657 5659 5656 5661 5661 5659 5656 5652 5647 5640 5639 5639 5626 5631 5633 5638 5641 5640 5640 5640 5637 5635 5633 5634 5631 5631 5632 5628 5624 5619 5614 5608 5604 5597 5590 5583 5575 5567 5560 5558 5553 5550 5544 5539
5658 5648 5657 5660 5660 5658 5654 5645 5635 5633 5637 5640 5632 5629 5631 5634 5632 5633 5635 5634 5634 5631 5629 5627 5628 5627 5627 5621 5617 5611 5606 5601 5597 5591 5584 5577 5570 5562 5555 5549 5542 5537 5532 5526
5649 5652 5659 5657 5650 5649 5647 5645 5634 5639 5635 5637 5640 5631 5628 5630 5630 5629 5629 5628 5627 5627 5624 5620 5617 5615 5612 5611 5608 5605 5599 5592 5587 5582 5575 5567 5559 5552 5546 5537 5531 5526 5523 5519
5649 5652 5652 5649 5646 5650 5645 5647 5642 5636 5638 5635 5634 5635 5624 5626 5626 5626 5624 5622 5621 5620 5619 5615 5608 5605 5604 5600 5597 5592 5587 5579 5573 5567 5562 5557 5553 5546 5533 5526 5520 5515 5510 5505
5641 5647 5646 5645 5644 5653 5642 5644 5644 5637 5635 5633 5630 5635 5623 5623 5621 5623 5623 5619 5615 5615 5614 5609 5607 5604 5599 5594 5587 5581 5577 5569 5560 5555 5550 5546 5539 5530 5522 5516 5509 5503 5498 5493
5643 5651 5648 5647 5644 5651 5646 5641 5635 5628 5629 5622 5625 5627 5627 5621 5632 5624 5619 5615 5612 5611 5608 5602 5597 5595 5591 5587 5579 5575 5569 5557 5552 5546 5540 5534 5527 5519 5512 5503 5497 5493 5488 5483
5636 5637 5645 5651 5645 5643 5644 5635 5618 5615 5612 5614 5614 5613 5639 5635 5630 5630 5620 5616 5611 5606 5600 5595 5593 5587 5582 5577 5569 5564 5557 5547 5540 5533 5526 5519 5511 5503 5496 5489 5484 5480 5476 5471
5625 5622 5639 5646 5645 5640 5632 5634 5620 5601 5601 5616 5609 5615 5638 5630 5631 5630 5625 5617 5606 5600 5594 5589 5583 5578 5573 5567 5562 5556 5549 5540 5531 5523 5515 5507 5499 5491 5483 5476 5470 5466 5461 5456
5621 5621 5637 5639 5642 5641 5628 5623 5621 5600 5582 5597 5610 5618 5631 5624 5623 5621 5615 5610 5604 5597 5590 5584 5575 5568 5563 5559 5552 5547 5540 5530 5521 5512 5504 5494 5485 5477 5469 5464 5458 5453 5447 5442
5627 5617 5626 5632 5635 5632 5634 5623 5616 5606 5594 5592 5606 5606 5627 5621 5623 5619 5612 5610 5601 5591 5582 5574 5567 5560 5554 5549 5540 5533 5528 5520 5510 5500 5491 5482 5473 5465 5459 5453 5446 5440 5434 5427
5626 5622 5617 5624 5624 5626 5623 5617 5603 5603 5592 5599 5594 5621 5625 5629 5629 5623 5620 5608 5598 5587 5577 5567 5559 5550 5543 5536 5529 5521 5514 5506 5498 5488 5478 5471 5463 5456 5448 5440 5433 5425 5418 5410
5619 5611 5606 5616 5622 5625 5626 5620 5614 5605 5593 5575 5582 5617 5620 5619 5622 5619 5611 5600 5591 5581 5571 5561 5550 5540 5532 5526 5519 5512 5504 5495 5487 5475 5467 5458 5451 5442 5434 5426 5417 5408 5399 5390
5619 5606 5598 5609 5618 5622 5623 5615 5605 5597 5588 5586 5594 5616 5614 5609 5611 5612 5606 5592 5581 5573 5561 5551 5541 5533 5525 5517 5510 5502 5492 5483 5472 5463 5455 5447 5437 5428 5420 5412 5403 5393 5385 5374
5617 5603 5609 5609 5614 5612 5612 5611 5607 5611 5598 5594 5600 5616 5616 5613 5607 5600 5595 5587 5578 5565 5554 5545 5534 5526 5517 5509 5501 5491 5481 5469 5460 5452 5444 5434 5425 5417 5408 5400 5391 5381 5371 5361
5612 5606 5600 5596 5597 5604 5611 5610 5607 5610 5608 5607 5613 5606 5614 5616 5609 5598 5586 5576 5567 5557 5547 5538 5528 5520 5511 5499 5492 5482 5470 5459 5449 5441 5432 5424 5415 5405 5396 5387 5377 5367 5355 5343
5597 5594 5590 5592 5590 5593 5602 5607 5606 5602 5602 5603 5600 5609 5613 5602 5595 5585 5578 5568 5561 5551 5543 5533 5522 5513 5503 5494 5484 5472 5460 5449 5439 5430 5421 5412 5403 5393 5384 5374 5362 5350 5338 5324
5590 5579 5589 5590 5575 5583 5590 5611 5610 5606 5606 5611 5600 5620 5601 5592 5588 5586 5574 5562 5554 5546 5537 5527 5517 5508 5497 5485 5473 5462 5450 5439 5429 5419 5410 5402 5393 5384 5371 5358 5347 5336 5323 5306
5573 5573 5562 5582 5557 5582 5620 5613 5612 5610 5608 5607 5605 5601 5595 5590 5580 5576 5567 5559 5549 5539 5531 5520 5509 5498 5487 5473 5461 5449 5439 5429 5419 5410 5401 5392 5382 5371 5358 5346 5334 5321 5305 5293
5579 5568 5553 5576 5575 5586 5613 5605 5603 5601 5613 5609 5602 5592 5579 5567 5567 5567 5558 5551 5544 5532 5521 5510 5499 5486 5472 5462 5450 5439 5428 5418 5409 5401 5390 5380 5369 5358 5346 5334 5319 5304 5292 5282
5565 5555 5575 5543 5570 5574 5600 5601 5600 5599 5592 5604 5594 5580 5565 5563 5559 5570 5556 5543 5529 5518 5506 5495 5481 5470 5460 5448 5437 5427 5417 5406 5399 5387 5376 5366 5355 5345 5334 5320 5305 5292 5281 5271
5551 5539 5560 5519 5563 5571 5589 5589 5587 5578 5586 5583 5580 5572 5558 5559 5564 5555 5542 5529 5520 5505 5492 5478 5467 5455 5444 5434 5424 5414 5404 5396 5383 5373 5363 5354 5344 5333 5321 5307 5292 5282 5271 5259
5572 5557 5549 5515 5541 5564 5577 5577 5572 5580 5575 5571 5567 5564 5555 5557 5541 5534 5523 5513 5503 5491 5478 5468 5455 5443 5430 5420 5412 5403 5393 5382 5370 5360 5352 5344 5334 5321 5308 5295 5284 5272 5261 5250
5566 5570 5566 5561 5570 5573 5568 5570 5570 5565 5564 5562 5555 5551 5545 5534 5528 5519 5508 5498 5488 5476 5463 5453 5443 5430 5417 5407 5399 5391 5381 5369 5359 5350 5342 5333 5320 5308 5297 5286 5276 5264 5251 5242
5559 5553 5556 5555 5572 5561 5560 5562 5560 5558 5555 5552 5547 5543 5532 5529 5517 5504 5492 5482 5471 5458 5451 5438 5429 5415 5405 5395 5386 5377 5367 5357 5348 5339 5328 5317 5307 5296 5287 5276 5265 5255 5245 5237
5555 5548 5547 5544 5556 5556 5559 5557 5557 5553 5545 5540 5535 5530 5526 5519 5508 5494 5482 5468 5457 5445 5430 5423 5413 5402 5393 5382 5373 5364 5355 5346 5335 5325 5316 5305 5294 5285 5276 5266 5257 5247 5240 5234
5548 5551 5543 5546 5561 5555 5555 5553 5547 5544 5540 5535 5527 5518 5510 5505 5492 5478 5460 5449 5438 5426 5417 5406 5398 5390 5380 5370 5360 5351 5344 5333 5322 5314 5307 5296 5286 5276 5267 5259 5251 5241 5235 5228